DELTA 1 DEB

Satellite information

Favourite Embed

Satellite Type and Status

DEBRISIN ORBIT

Key statistics

Satellite DELTA 1 DEB at a glance.

Uptime

20818

Days in orbit

Revolutions

≈ 12.5

Per day

Orbit

SSO

Sun Synchronous Orbit

Inclination

101.5

Latest

Satellite identification and parameters

Extended collection of information and parameters for DELTA 1 DEB.

Object identification

Identified? True

Debris? True

Object name: DELTA 1 DEB

International designator: 1968-114E

Object number (NORAD): 42078

Object ID (CCSDS): 42078

Country: UNITED STATES OF AMERICA (US)

Current information (Y/N): Y

RCS size: SMALL

Orbital parameters

Period: 115.198 minutes

Inclination: 101.4792 deg

SMA: 7842.534 km

Apoapsis: 1487.181 km

Periapsis: 1441.616 km

RAAN: 262.9249 deg

Eccentricy: 0.00290502

Argument of periapsis: 2.4573 deg

Mean anomaly: 357.6636 deg

Mean motion: 12.50023473 rev/day

Mean motion (dot): 0.00000014 rev/day2

B* drag term: 0.0003709985 1/REarth

Two-line elements (TLE)

Creation date: Oct. 27, 2025, 2:46 a.m.

Reference frame: TEME

Reference center: EARTH

Epoch: Oct. 26, 2025, 2:42 p.m. UTC

TLE line 0: 0 DELTA 1 DEB

TLE line 1: 1 42078U 68114E 25299.61260850 .00000014 00000-0 37100-3 0 9995

TLE line 2: 2 42078 101.4792 262.9249 0029050 2.4573 357.6636 12.50023473194027

Live tracking on map

Real-time ground track for satellite DELTA 1 DEB.

In-orbit conjunctions

A list of the most updated potential collisions computed for object DELTA 1 DEB.

Target Orbit TCA Probability of collision Miss distance Type
COSMOS 1132 LEO 2025-01-18 15:03:16 0.0001566329 198.0 (m) PAYLOAD
COSMOS 1252 LEO 2024-09-30 21:14:01 0.0002459494 239.0 (m) PAYLOAD
COSMOS 569 LEO 2024-07-17 21:42:36 0.0003239748 333.0 (m) PAYLOAD

Associated space launch

The ESSA series was the second generation of US meterological satellites after the TIROS (Television & Infra-Red Observation Satellite) series. They were also called OT (Operational TIROS), TOS (TIROS Operational Satellite).

DELTA 1 DEB was lifted into orbit during the mission ‘Thor Delta N | ESSA 8’, on board a Thor Delta N space rocket.

The launch took place on Dec. 15, 1968, 5:21 p.m. from Space Launch Complex 2E.

For more information about the launch, click the button.

Launch to space Thor Delta N | ESSA 8
Thor Delta N | ESSA 8

Agency: N/A

Status: Launch Successful

Launch date: Dec. 15, 1968, 5:21 p.m. UTC

Rocket: Thor Delta N

Launch pad: Space Launch Complex 2E

Location: Vandenberg SFB, CA, USA

...

Latest news about this satellite

There are no fresh news available about this satellite. Check back as we update our databases every day.


Newsletter sign-up

Weekly statistics, charts and insights to help you stay on top of the space industry.